Weather History for St. Eustatius, St. Eustatius

Change the Weather History Date:

Monday, October 10, 2011

  Actual Average Record
Temperature  
Mean Temperature 82 °F -  
Max Temperature 86 °F 84 °F 89 °F (2003)
Min Temperature 78 °F 78 °F 77 °F (2001)
Cooling Degree Days 17    
Growing Degree Days 32 (Base 50)    
Moisture  
Dew Point 74 °F    
Average Humidity 74    
Maximum Humidity 84    
Minimum Humidity 58    
Precipitation  
Precipitation 0.00 in - - ()
Sea Level Pressure  
Sea Level Pressure 29.91 in    
Wind  
Wind Speed 10 mph ()    
Max Wind Speed 14 mph    
Max Gust Speed -    
Visibility 8.9 miles    
Events      
Averages and records for this station are not official NWS values.
T = Trace of Precipitation, MM = Missing Value Source: Averaged Metar Reports

Daily Weather History Graph

Daily Weather History Graph

Search for Another Location

Airport:

Trip Planner

Search our weather history database for the weather conditions in past years. The results will help you decide how hot, cold, wet, or windy it might be!

Date:

Astronomy

Oct. 10, 2011 Rise Set
Actual Time 6:03 AM AST 5:53 PM AST
Civil Twilight 5:42 AM AST 6:15 PM AST
Nautical Twilight 5:16 AM AST 6:40 PM AST
Astronomical Twilight 4:51 AM AST 7:06 PM AST
Moon 4:54 PM AST (10/10) 4:46 AM AST (10/10)
Length of Visible Light 12h 33m
Length of Day
11h 49m
Waxing Gibbous, 98% of the Moon is Illuminated
Oct 10
Waxing Gibbous
Oct 11
Full
Oct 19
Last Quarter
Oct 26
New
Nov 2
First Quarter

Hourly Weather History & Observations

Time (AST) Temp. Heat Index Dew Point Humidity Pressure Visibility Wind Dir Wind Speed Gust Speed Precip Events Conditions
12:00 AM 80.6 °F 85.4 °F 73.4 °F 79% 29.95 in 6.2 mi ENE 12.7 mph - N/A   Unknown
1:00 AM 80.6 °F 84.6 °F 71.6 °F 74% 29.92 in - ENE 11.5 mph - N/A   Unknown
2:00 AM 80 °F - 72 °F 70%  in - ENE 8.1 mph - -   Clear
2:00 AM 80.6 °F 84.6 °F 71.6 °F 74% 29.92 in - NE 10.4 mph - N/A   Unknown
4:00 AM 78.8 °F - 71.6 °F 78% 29.89 in - ENE 8.1 mph - N/A   Unknown
5:00 AM 78.8 °F - 73.4 °F 83% 29.89 in - ENE 5.8 mph - N/A   Unknown
6:00 AM 78.8 °F - 71.6 °F 78% 29.89 in - ENE 8.1 mph - N/A   Unknown
8:00 AM 83 °F - 73 °F 64% 29.93 in 19 mi ENE 11.5 mph - -   Scattered Clouds
8:00 AM 82.4 °F 88.2 °F 73.4 °F 74% 29.92 in 6.2 mi ENE 10.4 mph - N/A   Partly Cloudy
9:00 AM 84.2 °F 90.9 °F 73.4 °F 70% 29.95 in 6.2 mi ENE 9.2 mph - N/A   Partly Cloudy
10:00 AM 84.2 °F 90.9 °F 73.4 °F 70% 29.95 in 6.2 mi East 10.4 mph - N/A   Partly Cloudy
11:00 AM 86 °F - 73 °F 58% 29.95 in 19 mi East 11.5 mph - -   Scattered Clouds
11:00 AM 86.0 °F 95.1 °F 75.2 °F 70% 29.95 in 6.2 mi ENE 11.5 mph - N/A   Scattered Clouds
12:00 PM 86.0 °F 95.1 °F 75.2 °F 70% 29.92 in 6.2 mi ENE 12.7 mph - N/A   Scattered Clouds
1:00 PM 86.0 °F 95.1 °F 75.2 °F 70% 29.92 in - ENE 11.5 mph - N/A   Unknown
2:00 PM 86 °F - 74 °F 61% 29.89 in 19 mi ENE 13.8 mph - -   Scattered Clouds
2:00 PM 86.0 °F 95.1 °F 75.2 °F 70% 29.89 in 6.2 mi ENE 12.7 mph - N/A   Partly Cloudy
3:00 PM 86.0 °F 95.1 °F 75.2 °F 70% 29.89 in 6.2 mi ENE 11.5 mph - N/A   Partly Cloudy
4:00 PM 84.2 °F 92.3 °F 75.2 °F 74% 29.86 in 6.2 mi ENE 12.7 mph - N/A   Scattered Clouds
5:00 PM 84 °F - 76 °F 71% 29.87 in 19 mi East 9.2 mph - -   Partly Cloudy
5:00 PM 84.2 °F 92.3 °F 75.2 °F 74% 29.86 in 6.2 mi ENE 10.4 mph - N/A   Scattered Clouds
6:00 PM 82.4 °F 89.5 °F 75.2 °F 79% 29.89 in 6.2 mi NE 11.5 mph - N/A   Scattered Clouds
7:00 PM 80.6 °F 86.2 °F 75.2 °F 84% 29.89 in 6.2 mi ENE 10.4 mph - N/A   Scattered Clouds
8:00 PM 80.6 °F 86.2 °F 75.2 °F 84% 29.89 in 6.2 mi NE 11.5 mph - N/A   Scattered Clouds
9:00 PM 80.6 °F 86.2 °F 75.2 °F 84% 29.92 in 6.2 mi NE 12.7 mph - N/A   Scattered Clouds
11:00 PM 80.6 °F 85.4 °F 73.4 °F 79% 29.92 in 6.2 mi NE 10.4 mph - N/A   Unknown